Dewpoint
45 46 46 46 46 47 47 48 50 52 50 48 47 45 45 47 48 50 51 52 52 52 53 55 56 56 53 45 42 43 48 47 39 30 26 25 27 26 20 18 16 16 18 14 14 12 15
48 47 47 47 47 45 45 46 48 50 49 50 47 46 46 44 46 48 50 50 51 52 52 54 57 56 51 39 41 37 39 44 33 31 29 29 29 26 21 17 16 20 20 19 17 16 16
45 47 48 49 48 47 45 46 47 48 49 49 49 48 44 44 45 45 47 49 49 50 52 53 56 55 48 40 41 39 36 34 41 37 31 30 29 27 22 17 24 24 23 21 19 18 15
45 45 46 46 47 49 48 47 47 47 48 49 49 48 46 43 43 44 46 48 49 49 50 53 55 52 44 43 43 42 41 36 34 34 35 32 31 27 20 25 24 24 22 18 19 19 18
46 45 45 46 47 47 47 49 48 47 47 48 49 48 48 47 43 43 44 47 48 48 49 52 52 50 43 42 40 39 35 32 32 29 32 31 28 25 24 21 23 23 20 18 16 17 20
43 44 45 46 46 46 47 47 48 49 48 48 48 49 48 48 47 43 43 46 45 47 47 51 50 43 43 31 32 31 35 32 28 27 31 29 26 23 23 23 20 21 21 19 16 22 24
42 43 43 45 46 46 46 46 46 47 49 48 48 48 50 48 48 46 45 42 41 45 46 44 43 38 27 32 34 27 30 27 27 26 28 28 24 22 23 23 23 22 21 19 18 22 23
43 42 44 45 46 46 46 46 46 46 46 49 48 48 49 49 48 46 46 40 39 39 37 45 45 43 38 38 34 31 26 26 25 21 29 28 24 24 24 24 23 23 21 19 22 23 21
44 45 45 45 46 47 47 47 47 47 47 46 48 48 48 48 48 46 43 40 40 40 37 36 36 38 41 38 36 32 29 25 23 21 27 27 25 25 24 23 22 21 19 19 21 23 24
44 45 46 46 46 47 47 47 47 47 48 47 47 48 47 48 43 42 40 41 42 40 35 27 25 26 27 22 30 32 30 26 21 19 25 26 27 25 25 23 22 19 20 20 23 23 18
45 46 46 47 47 47 48 48 48 48 48 48 48 48 47 47 43 41 41 43 44 44 9 7 11 24 22 20 21 23 29 27 20 19 24 24 25 25 24 23 23 20 25 23 25 23 20
45 46 46 47 47 48 48 48 48 48 48 48 48 47 48 46 46 44 44 44 45 34 17 10 26 26 24 19 20 22 23 25 24 19 21 22 23 23 23 23 23 21 22 24 24 23 19
45 46 46 47 48 48 48 48 49 49 49 48 48 48 47 43 40 44 45 42 33 23 12 1 26 26 26 21 20 21 20 20 22 19 17 19 21 21 22 20 23 21 20 19 20 21 19
45 46 46 47 48 48 48 48 48 49 49 48 48 48 47 44 43 44 44 36 25 23 17 13 17 25 24 24 22 21 18 19 24 22 19 18 18 20 21 20 20 21 21 20 19 21 28
45 46 46 47 47 47 48 48 48 49 49 49 48 46 45 44 43 45 40 28 22 23 16 17 13 16 24 23 25 22 21 21 24 25 18 17 18 20 19 22 21 23 21 25 30 33 31
46 45 46 46 46 47 47 48 48 48 49 49 46 44 41 44 43 42 35 28 26 24 21 17 15 16 23 26 24 24 24 25 23 24 25 21 18 21 21 22 22 22 26 25 32 26 28
45 45 46 46 46 47 47 48 48 48 48 49 45 38 41 43 44 36 28 28 29 28 26 21 19 20 19 22 26 23 23 24 23 21 22 21 21 22 23 21 20 21 20 25 31 30 24
45 45 45 45 45 46 46 47 48 48 48 48 42 32 41 42 34 32 28 28 29 25 26 24 23 21 22 22 21 22 22 22 24 24 20 22 27 24 23 23 23 22 20 25 27 25 27
44 45 45 45 45 46 46 46 47 47 48 45 37 36 41 40 28 28 30 28 29 27 27 23 21 19 20 22 21 28 24 26 25 24 24 26 28 26 23 23 21 20 22 22 28 30 27
45 45 45 45 46 46 46 46 46 47 48 46 36 30 37 38 33 27 26 26 28 29 30 27 24 22 22 24 24 29 32 28 27 26 29 29 27 26 22 26 25 21 21 22 24 23 24
44 44 45 45 46 45 46 47 47 48 48 46 35 32 34 30 31 31 27 26 25 26 27 27 24 25 24 23 27 28 35 37 29 30 28 28 25 26 26 27 27 25 22 20 20 26 25
42 42 42 43 43 44 44 45 46 46 48 43 32 34 33 29 33 32 30 29 27 26 24 25 25 24 24 25 27 33 38 35 34 26 26 29 25 26 24 26 24 25 24 20 20 19 20
42 42 42 42 42 43 44 44 45 46 47 42 38 36 32 29 31 31 29 29 30 26 25 23 23 23 22 25 37 40 40 40 37 32 26 26 25 25 24 26 24 24 24 26 25 20 19
43 43 43 43 43 43 43 43 44 45 46 42 37 35 34 28 32 30 29 29 28 27 25 24 21 22 22 36 42 41 40 39 35 34 34 31 25 27 26 25 21 23 24 25 23 21 20
44 44 44 44 44 43 43 43 43 43 45 43 40 37 35 31 27 31 29 29 29 27 28 24 24 20 23 37 33 33 34 35 31 31 33 32 33 27 26 23 25 25 23 22 22 21 21
43 43 45 44 44 44 43 43 43 43 44 43 41 42 37 32 28 28 30 28 27 26 27 28 28 23 26 30 32 29 27 30 27 29 32 31 32 31 30 23 20 26 28 28 25 20 25
44 43 43 44 45 45 45 44 44 42 43 43 40 42 41 33 32 30 30 29 29 28 26 27 26 26 33 29 27 29 28 31 24 25 26 28 28 27 28 29 28 29 27 28 23 22 25
44 44 44 44 44 44 44 45 44 43 43 43 41 42 41 36 35 35 32 30 29 29 27 28 25 27 32 28 29 30 27 29 25 30 28 28 27 27 30 30 28 31 27 24 27 27 27
44 45 45 44 43 43 43 43 44 43 43 43 38 43 47 41 38 42 40 41 40 39 31 29 26 31 35 32 35 29 26 23 22 17 33 28 32 30 31 30 33 34 34 32 34 33 35
Wind_Speed
15 14 15 14 14 15 15 16 14 16 14 13 13 14 14 14 15 14 16 18 18 18 19 19 16 15 10 7 16 10 9 9 5 5 10 11 13 13 17 14 19 19 21 14 18 17 15
17 16 16 15 15 14 14 15 15 14 16 15 15 13 15 15 16 15 16 19 19 20 20 16 15 13 4 20 11 14 15 10 10 10 9 16 10 16 19 21 19 21 23 20 17 18 19
19 17 17 17 17 17 15 14 13 14 14 15 16 16 16 16 16 18 19 19 21 21 21 16 13 9 10 33 11 23 14 13 14 15 17 16 21 16 14 19 14 19 23 21 19 23 22
20 20 20 19 18 18 17 16 16 15 14 14 15 16 15 18 18 18 20 21 23 23 22 18 12 6 12 16 21 24 30 19 20 15 21 20 17 18 12 11 17 17 17 16 23 22 20
20 21 21 21 20 19 18 19 18 17 16 14 15 15 17 16 17 20 21 24 27 27 21 18 8 7 13 14 11 21 22 17 19 20 15 13 16 11 7 14 16 11 21 24 30 25 10
24 24 22 22 22 21 20 20 18 18 17 15 15 16 15 16 15 18 21 27 33 19 12 9 11 9 11 7 8 13 19 20 14 14 14 10 6 13 11 13 21 15 16 20 12 3 8
25 26 25 25 24 23 23 22 20 19 19 17 15 14 14 15 14 14 13 10 2 0 6 13 13 9 15 9 19 6 15 13 12 11 20 13 13 23 21 23 26 24 26 15 13 6 11
27 28 28 28 27 27 26 24 22 21 19 19 16 14 14 14 15 11 5 5 13 8 15 25 29 28 29 18 12 23 10 16 17 24 18 18 29 22 22 24 24 25 20 16 3 10 6
28 28 29 29 29 27 26 26 23 21 20 19 17 15 12 13 10 8 9 23 19 21 10 14 28 25 28 24 21 31 15 19 20 19 25 25 17 24 25 26 26 19 11 17 8 8 15
30 29 28 29 29 28 27 25 23 22 21 19 18 17 11 8 5 9 9 16 19 9 9 10 12 13 20 15 14 31 22 19 13 24 25 21 27 25 26 28 22 11 18 16 6 11 11
32 31 30 29 28 28 27 25 24 23 22 20 18 18 13 14 8 9 4 18 20 6 6 9 8 11 12 26 9 15 34 17 27 27 18 22 22 31 29 26 18 15 7 4 9 11 11
33 32 32 31 30 28 28 26 25 24 23 22 21 18 16 10 10 20 19 19 12 7 14 8 9 12 12 30 14 6 19 22 6 22 19 28 22 22 29 15 13 15 6 5 8 9 15
34 34 33 32 31 29 28 27 26 26 25 23 21 18 18 11 12 9 11 4 8 12 9 12 7 14 16 15 24 15 17 23 19 23 29 26 27 30 20 19 18 14 5 6 6 10 12
36 35 34 33 32 30 29 28 27 26 25 24 22 20 19 14 18 11 6 3 16 21 35 12 2 20 15 13 23 23 16 26 25 19 9 22 24 26 14 21 13 14 14 9 8 8 5
37 36 33 32 32 31 30 29 28 27 26 25 25 18 15 15 17 9 6 18 27 22 20 31 24 13 15 18 10 22 25 23 27 28 22 19 18 5 20 12 17 9 15 13 6 2 4
36 36 35 33 33 32 31 30 29 28 28 28 20 14 20 19 16 12 16 39 23 32 21 16 10 16 8 18 16 21 16 16 22 32 32 8 12 20 30 17 19 15 6 8 4 6 4
37 36 35 34 34 34 32 32 31 30 30 30 18 9 13 23 16 14 38 29 26 23 25 13 17 20 26 23 18 16 10 15 25 26 30 25 14 19 14 23 21 13 20 9 10 11 10
37 37 37 36 35 34 34 33 33 32 31 30 14 14 20 26 25 23 41 32 17 18 19 24 23 27 25 27 24 21 20 15 18 14 33 27 3 24 27 26 27 23 20 15 14 14 7
38 37 37 36 35 35 35 34 35 35 36 25 13 8 18 28 28 40 27 30 32 23 26 16 16 13 22 24 13 7 16 12 16 19 21 17 12 13 18 22 26 28 15 19 18 6 13
37 36 36 36 36 36 36 35 35 35 38 27 12 13 9 29 28 29 26 27 27 25 27 29 22 25 30 23 22 9 11 2 5 12 27 19 15 24 26 16 11 14 15 18 18 17 13
29 29 29 29 29 31 32 33 34 36 40 30 11 12 14 31 46 32 28 13 31 24 34 16 17 30 25 22 13 5 6 13 8 7 16 17 26 27 25 24 24 27 22 24 25 20 16
31 31 31 31 31 31 31 33 34 38 41 33 13 11 17 5 21 33 30 36 30 32 19 39 32 24 19 23 14 7 11 9 14 11 11 16 14 19 26 20 24 21 24 23 21 17 12
35 34 34 34 33 34 34 34 35 36 40 31 10 18 21 26 23 28 47 39 29 22 31 26 27 23 26 26 8 1 6 17 12 10 22 8 7 12 23 21 24 15 28 21 21 21 21
38 38 37 37 37 37 37 38 38 39 40 7 10 17 7 17 26 36 26 29 31 29 27 20 28 27 35 2 7 5 12 17 22 17 9 10 14 8 15 11 29 8 16 20 23 13 10
34 37 38 37 37 39 39 40 41 40 40 21 9 18 12 8 35 19 28 31 29 31 27 29 26 26 11 6 4 3 4 4 11 11 11 3 8 8 21 24 15 17 8 11 14 17 13
36 32 33 34 36 37 39 40 42 42 39 28 12 20 14 8 23 27 29 26 26 32 29 31 20 16 11 12 3 9 9 10 8 5 2 3 6 4 1 15 28 3 11 16 9 18 7
35 35 33 34 35 36 38 41 43 42 39 24 10 20 9 17 6 27 26 28 26 23 26 17 15 12 10 14 17 10 10 5 15 19 7 5 7 11 10 7 7 9 15 16 15 6 10
29 34 37 37 37 37 37 38 41 41 38 31 12 21 16 15 11 7 12 14 21 26 24 6 12 14 7 14 13 8 9 11 8 8 13 11 11 11 5 8 22 7 8 16 7 16 18
21 25 33 43 42 39 39 37 40 40 38 29 9 24 20 6 6 4 5 4 4 1 11 20 14 5 7 10 11 9 9 9 10 11 11 16 12 11 11 5 7 11 13 9 2 4 5
Wind_Direction
302 295 299 303 303 302 303 304 316 328 305 297 302 306 310 312 319 324 321 319 317 313 312 317 317 332 341 287 249 269 186 180 177 169 219 230 262 267 252 264 280 285 291 256 266 276 300
290 288 289 283 287 294 297 302 301 305 316 307 296 299 305 307 313 316 318 317 315 312 307 313 316 331 266 269 252 263 209 185 211 203 231 237 246 262 270 272 282 292 297 301 307 307 298
296 303 301 289 280 282 278 278 283 289 296 306 306 293 300 305 306 311 311 312 310 307 304 303 305 308 262 248 278 291 277 277 212 215 232 244 245 250 283 298 294 300 300 288 283 276 263
295 295 293 291 295 290 279 275 276 279 287 291 299 304 296 299 305 306 306 306 303 299 298 292 289 293 260 255 253 259 266 265 268 232 232 242 263 282 262 298 302 304 302 291 276 269 258
293 292 292 288 288 285 286 283 271 272 279 287 291 294 301 293 300 304 306 303 296 290 286 265 281 190 262 281 229 247 242 246 234 246 236 242 257 273 277 269 282 274 264 270 271 255 228
290 288 288 287 285 283 281 280 282 268 267 272 280 284 292 298 297 304 309 305 287 283 273 239 237 291 256 260 240 226 221 227 218 217 240 232 266 245 253 247 245 256 258 257 278 119 197
287 287 285 282 282 281 279 277 276 274 269 259 270 280 287 297 299 301 325 334 347 1 210 212 197 226 291 284 322 225 193 209 233 226 211 212 223 231 224 232 242 253 265 298 300 215 225
285 282 280 279 277 275 271 270 270 270 273 268 258 271 279 289 296 302 310 282 254 16 295 230 249 242 254 267 286 285 201 184 208 225 192 223 228 226 239 245 248 252 265 296 15 330 318
281 280 279 279 278 275 271 267 263 263 265 266 257 255 265 284 300 284 237 242 283 317 291 265 235 240 234 226 233 245 242 192 200 220 208 209 232 217 234 247 255 255 261 264 234 257 277
281 280 279 278 274 273 267 264 263 259 255 254 254 244 249 276 269 250 248 248 262 243 293 271 217 244 217 213 240 227 239 207 207 217 226 220 234 242 232 242 246 238 253 254 279 304 272
278 277 275 274 271 270 263 259 256 253 251 250 250 238 230 207 296 313 71 344 338 173 286 252 206 168 190 177 169 211 214 227 201 213 207 223 213 231 240 252 219 247 231 311 296 303 311
279 277 274 270 266 263 258 255 251 248 245 243 245 233 222 240 242 256 310 318 317 179 238 265 155 178 162 193 221 357 183 218 245 219 235 234 245 243 238 233 244 255 272 232 238 278 279
276 275 271 269 265 261 254 251 247 241 236 236 236 230 215 216 243 254 301 309 215 205 237 250 196 168 200 186 212 233 195 198 204 203 231 247 242 242 241 228 221 238 230 277 289 239 243
273 269 266 262 259 256 252 250 245 238 230 227 228 224 223 216 243 274 303 195 240 216 226 298 281 178 191 188 208 215 216 209 220 216 207 227 243 238 227 217 210 219 203 201 230 232 309
269 266 262 258 255 252 249 246 243 235 224 217 222 221 219 213 235 213 228 206 220 229 215 243 276 273 194 209 202 208 224 213 208 209 218 207 236 238 240 237 200 227 193 201 128 60 13
267 265 263 259 254 250 247 244 240 231 220 210 216 210 213 206 205 209 230 230 229 231 260 262 287 289 198 202 218 192 205 211 223 209 216 248 238 236 252 218 210 214 178 208 89 193 203
267 264 261 258 253 249 243 239 234 227 218 204 202 215 181 192 170 215 226 219 229 242 254 274 272 274 303 312 226 212 220 217 199 209 210 222 259 263 257 215 200 211 231 218 180 176 183
265 261 257 255 252 245 243 236 229 222 212 196 198 211 175 170 198 221 230 217 246 254 239 263 282 278 280 292 299 240 247 201 193 193 202 191 163 251 255 264 199 202 209 204 214 234 166
264 261 257 253 249 247 238 235 228 218 204 196 196 168 188 173 208 218 222 225 235 239 243 258 239 245 271 281 305 299 211 257 204 204 177 172 203 268 283 286 197 198 202 208 211 195 195
266 260 254 252 248 243 240 226 223 217 206 196 159 166 176 200 221 216 213 225 224 231 256 246 251 272 283 285 293 305 326 293 267 230 179 157 186 215 237 252 269 215 223 235 215 224 237
264 259 253 247 243 240 235 222 219 211 204 192 172 201 184 204 212 213 203 214 225 222 219 247 246 249 263 284 303 303 318 301 309 139 169 180 221 237 258 225 233 254 223 228 222 222 217
266 262 257 249 241 234 229 225 218 211 203 204 172 185 188 211 188 202 213 217 220 215 207 223 234 248 255 252 240 319 2 240 271 268 184 180 206 220 252 274 236 234 245 228 232 237 234
264 258 253 247 240 234 228 222 216 211 200 207 162 215 173 207 183 193 211 215 218 228 223 231 231 243 247 260 131 334 296 305 281 251 222 186 182 205 251 252 269 250 232 261 271 228 226
265 258 251 245 238 231 224 218 214 209 204 198 183 184 208 186 191 206 206 212 223 226 237 233 223 230 236 208 79 20 272 297 300 295 280 159 194 230 244 242 243 229 189 227 246 237 237
272 261 251 243 234 228 223 217 212 210 204 205 191 195 176 182 195 189 202 203 207 234 245 237 238 229 240 172 207 201 303 332 276 250 260 134 122 190 218 221 266 270 229 254 267 277 257
267 261 249 237 229 224 218 214 210 206 203 204 175 223 188 162 198 193 188 195 197 215 238 252 254 231 209 204 200 213 215 205 219 211 246 230 102 152 337 227 238 265 256 265 282 266 270
268 253 249 238 222 213 210 208 205 203 200 194 179 201 222 201 193 183 188 189 200 207 223 233 234 222 208 201 206 221 230 301 239 191 181 181 213 225 269 263 300 198 214 252 257 254 265
275 253 244 232 215 205 199 197 197 196 192 187 167 192 220 192 180 173 184 183 196 208 211 210 207 209 164 199 206 200 214 196 252 180 179 173 176 205 203 234 241 281 192 236 245 242 256
316 285 253 222 204 195 191 191 188 183 183 170 164 180 216 156 157 95 194 153 119 27 203 216 209 156 154 170 224 196 223 189 198 244 181 203 181 192 196 240 245 309 324 286 32 324 336